User: anonymous   Login
Location: Unspecified
(0.0000°N, 0.0000°E)
Time: 10:32:25
(UTC+00:00)
Language:

BIRD - Orbit

View from above orbital plane
View from above orbital plane
View from above satellite
View from above satellite

Ground track
Ground track

The orbit data is extracted from the following two-line orbital elements,

1 26959U 01049C   18231.53358028 +.00001320 +00000-0 +40258-4 0  9993
2 26959 097.8415 209.2768 0007280 313.4374 046.6262 15.35967717238283
Epoch (UTC): 19 August 2018 12:48:21
Eccentricity: 0.0007280
inclination: 97.8415°
perigee height: 453 km
apogee height: 463 km
right ascension of ascending node: 209.2768°
argument of perigee: 313.4374°
revolutions per day: 15.35967717
mean anomaly at epoch: 46.6262°
orbit number at epoch: 23828

The dashed part of the orbit path shows where the satellite is in the earth's shadow,  

DLR